| time (UTC) | temp F | wind direction | speed MPH | gust MPH | rain 1hr in | rain 24hr in | rain mn in | humidity % | barometer mb |
| 20260504081533 | 45 | 251 | 2.0 | 5.0 | 0.00 | 0.00 | 0.00 | 73 | 1005.4 |
| 20260504044514 | 41 | 252 | 0.0 | 4.0 | 0.00 | 0.00 | 0.00 | 53 | 1005.9 |
| 20260504043055 | 41 | 253 | 0.0 | 2.0 | 0.00 | 0.00 | 0.00 | 48 | 1005.8 |
| 20260504041531 | 41 | 253 | 0.0 | 4.0 | 0.00 | 0.00 | 0.00 | 50 | 1005.9 |
| 20260504040019 | 42 | 253 | 1.0 | 4.0 | 0.00 | 0.00 | 0.00 | 51 | 1005.9 |
| 20260504034510 | 42 | 245 | 2.0 | 4.0 | 0.00 | 0.00 | 0.00 | 48 | 1005.8 |
| 20260504033102 | 40 | 247 | 2.0 | 4.0 | 0.00 | 0.00 | 0.00 | 53 | 1005.7 |
| 20260504031543 | 39 | 266 | 0.0 | 2.0 | 0.00 | 0.00 | 0.00 | 57 | 1005.8 |
| 20260504030015 | 40 | 266 | 0.0 | 2.0 | 0.00 | 0.00 | 0.00 | 54 | 1005.9 |
| 20260504024539 | 41 | 266 | 1.0 | 2.0 | 0.00 | 0.00 | 0.00 | 53 | 1005.8 |
| 20260504023023 | 41 | 266 | 0.0 | 3.0 | 0.00 | 0.00 | 0.00 | 51 | 1005.8 |
| 20260504021555 | 41 | 267 | 0.0 | 4.0 | 0.00 | 0.00 | 0.00 | 51 | 1005.9 |
| 20260504020043 | 42 | 266 | 0.0 | 3.0 | 0.00 | 0.00 | 0.00 | 50 | 1005.9 |
| 20260504014501 | 42 | 264 | 1.0 | 3.0 | 0.00 | 0.00 | 0.00 | 50 | 1005.8 |
| 20260504013105 | 42 | 262 | 0.0 | 3.0 | 0.00 | 0.00 | 0.00 | 49 | 1005.7 |
| 20260504011546 | 42 | 262 | 0.0 | 2.0 | 0.00 | 0.00 | 0.00 | 49 | 1005.5 |
| 20260504010024 | 43 | 262 | 1.0 | 2.0 | 0.00 | 0.00 | 0.00 | 48 | 1005.3 |
| 20260504004517 | 43 | 262 | 0.0 | 2.0 | 0.00 | 0.00 | 0.00 | 47 | 1005.1 |
| 20260504003048 | 44 | 262 | 0.0 | 2.0 | 0.00 | 0.00 | 0.00 | 47 | 1004.9 |
| 20260504001513 | 45 | 262 | 0.0 | 2.0 | 0.00 | 0.00 | 0.00 | 45 | 1004.7 |
| 20260504000058 | 46 | 262 | 0.0 | 3.0 | 0.00 | 0.00 | 0.00 | 44 | 1004.6 |
| 20260503234529 | 47 | 283 | 1.0 | 5.0 | 0.00 | 0.00 | 0.00 | 43 | 1004.5 |
| 20260503233101 | 48 | 287 | 4.0 | 7.0 | 0.00 | 0.00 | 0.00 | 40 | 1004.4 |
| 20260503231539 | 49 | 272 | 2.0 | 8.0 | 0.00 | 0.00 | 0.00 | 41 | 1004.3 |
| 20260503230026 | 49 | 282 | 3.0 | 11.0 | 0.00 | 0.00 | 0.00 | 40 | 1004.3 |
| 20260503224605 | 49 | 308 | 5.0 | 13.0 | 0.00 | 0.00 | 0.00 | 41 | 1004.4 |
| 20260503223035 | 48 | 217 | 7.0 | 15.0 | 0.00 | 0.00 | 0.00 | 40 | 1004.3 |
| 20260503221518 | 48 | 307 | 3.0 | 13.0 | 0.00 | 0.00 | 0.00 | 41 | 1004.2 |
| 20260503220005 | 48 | 293 | 6.0 | 12.0 | 0.00 | 0.00 | 0.00 | 43 | 1004.2 |
| 20260503214600 | 48 | 289 | 3.0 | 12.0 | 0.00 | 0.00 | 0.00 | 44 | 1004.2 |
| 20260503213010 | 48 | 222 | 6.0 | 15.0 | 0.00 | 0.00 | 0.00 | 42 | 1004.1 |
| 20260503211539 | 47 | 322 | 9.0 | 24.0 | 0.00 | 0.00 | 0.00 | 42 | 1004.4 |
| 20260503210021 | 48 | 266 | 3.0 | 13.0 | 0.00 | 0.00 | 0.00 | 42 | 1004.1 |
| 20260503204558 | 49 | 290 | 3.0 | 13.0 | 0.00 | 0.00 | 0.00 | 43 | 1004.0 |
| 20260503203045 | 47 | 260 | 4.0 | 11.0 | 0.00 | 0.00 | 0.00 | 43 | 1004.1 |
| 20260503201502 | 47 | 354 | 7.0 | 15.0 | 0.00 | 0.00 | 0.00 | 41 | 1004.0 |
| 20260503200043 | 47 | 295 | 4.0 | 17.0 | 0.00 | 0.00 | 0.00 | 44 | 1004.0 |
| 20260503194534 | 47 | 256 | 4.0 | 14.0 | 0.00 | 0.00 | 0.00 | 42 | 1004.1 |
| 20260503193003 | 47 | 254 | 7.0 | 23.0 | 0.00 | 0.00 | 0.00 | 42 | 1004.2 |
| 20260503191553 | 46 | 284 | 4.0 | 16.0 | 0.00 | 0.00 | 0.00 | 44 | 1004.3 |
| 20260503190038 | 46 | 256 | 6.0 | 20.0 | 0.00 | 0.00 | 0.00 | 44 | 1004.4 |
| 20260503184525 | 49 | 252 | 4.0 | 15.0 | 0.00 | 0.00 | 0.00 | 39 | 1004.2 |
| 20260503183008 | 46 | 208 | 7.0 | 22.0 | 0.00 | 0.00 | 0.00 | 42 | 1004.1 |
| 20260503181546 | 46 | 174 | 9.0 | 23.0 | 0.00 | 0.00 | 0.00 | 43 | 1004.1 |
| 20260503180019 | 47 | 252 | 9.0 | 23.0 | 0.00 | 0.00 | 0.00 | 42 | 1003.9 |
| 20260503174600 | 48 | 295 | 9.0 | 22.0 | 0.00 | 0.00 | 0.00 | 36 | 1003.7 |
| 20260503173026 | 49 | 331 | 6.0 | 13.0 | 0.00 | 0.00 | 0.00 | 35 | 1003.6 |
| 20260503171601 | 48 | 318 | 5.0 | 16.0 | 0.00 | 0.00 | 0.00 | 37 | 1003.8 |